Location: Newark
(51.0000°N, 11.4100°E)
Time: 19:15:28
(UTC+00:00)

Vanguard 2 Rocket - Visible Passes

Search period start: 18 November 2019 00:00
Search period end: 28 November 2019 00:00
Orbit: 554 x 3326 km, 32.9° (Epoch: 17 November)

Date Brightness Start Highest point End Pass type
(mag) Time Alt. Az. Time Alt. Az. Time Alt. Az.
18 Nov 9.0 03:44:49 15° SSW 03:46:44 17° S 03:52:13 10° SE visible
18 Nov 9.8 05:56:20 10° SW 05:59:38 12° SSW 06:03:31 10° S visible
19 Nov 9.3 02:48:45 14° SSE 02:48:45 14° SSE 02:51:28 10° SE visible
19 Nov 9.4 04:56:37 10° SW 04:59:57 13° SSW 05:04:01 10° SSE visible
20 Nov 9.2 03:58:31 12° SSW 04:00:29 13° S 04:04:01 10° SSE visible
21 Nov 9.3 03:02:28 12° S 03:02:28 12° S 03:03:45 10° SSE visible
